STARLINK-11158, 60403

Orbit data source: Space-Track

STARLINK-11158, 60403 is a payload satellite owned by SpaceX/Seattle (US) in LEO that was launched on Sat, 10 Aug 2024 UTC via an FALCON 9 launch vehicle from the Air Force Eastern Test Range (AFETR). Payload-class satellites include a variety of spacecraft equipped with specific instruments for various scientific and technological missions. These include communications satellites like Starlink; space stations such as the ISS; scientific satellites like the Hubble; Earth observation satellites from companies like Planet Labs, Umbra, and HawkEye 360; GPS; miniature CubeSats for education and research; and military/defense satellites.

Loading next visibility...
Identifier
60403, 2024-141F
Orbit
LEO
Last TLE update
19 hours ago
Origin
Manufacturer
SpaceX/Seattle
Mission
Operational Commercial Communications
Bus & Motor
STARLINK V2M, Unknown motor
Mass
730 kg wet, ~700 kg dry
Launch date (UTC)
2024-08-10 (11 months ago)
Launch vehicle
FALCON 9
Launch site
Air Force Eastern Test Range (AFETR)
Object type
Payload
Rocket body
Debris
Shape & HBR
Box + 2 Pan, 29 m
Radar Cross Section
36.964 m², Large (>1 m²)

Expand to show TLE details & history

TLE from 19 hours ago
0 STARLINK-11158
1 60403U 24141F   25186.36982442  .00001616  00000-0  18191-4 0  9993
2 60403  53.1584 225.8146 0001172 125.5395 234.5732 15.69714442 52848
Epoch: 2025-07-05T08:52Z
TLE epoch observation values (Epoch: 2025-07-05T08:52:32.829Z)
Latitude
-0.00007°
Longitude
169.06891°
Altitude
361.087 km
Speed
7.694 km/s
True Right ascension
15h 03m 15s
True Declination
0° 00' 00"
Sunlit
Object was in full shadow at epoch
Visualization orbit readout
Latitude
53.29206°
Longitude
-107.00962°
Altitude
365.644 km
Speed
7.697 km/s
Apparent Right ascension
00h 33m 22s
Apparent Declination
13° 13' 35"
Sunlit
Object is in daylight
Visualization observer readout
Local Sidereal Time
15:32:20
Azimuth
47.897° ENE
Elevation
-22.554°
Doppler factor
1
Orbital elements
Apogee altitude
360.765 km
Perigee altitude
359.185 km
Semi-major axis
6,738.112 km
Eccentricity
0.00012
Inclination
53.1584°
RAAN
225.8146°
Arg. of periapsis
125.5395°
True anomaly
Unknown
Mean anomaly
234.5732°
Eccentric anomaly
Unknown
Mean motion
3.92406 °/min
Orbital period
91.74 mins
BSTAR
0.000018191
Loading maneuver chart data...
Loading SW <> Apogee altitude chart data...
Loading historical data...
Loading historical data...
Loading historical data...
Loading historical data...
Loading historical data...
Loading historical data...
Loading historical data...

STARLINK-11158 Visibility forecast

Observer location: undefined°, undefined°

Span
Click to sort rows by Start time (UTC) header in descending order
Start Az.
Max El. time (UTC)
Max El. Az.
Max El.
End time (UTC)
End Az.
5 mins2025-07-06 04:54:17.983Z206.249° SW2025-07-06 04:57:17.983Z115.732° SE32.161°2025-07-06 04:59:17.983Z66.611° ENE
|